Simultaneous Nadir Overpasses (SNOs) Predictions

Prediction of SNOs between FY3D and NOAA-19 Satellite Orbit:

Table of predicted SNOs for the next 14.0 days since TLE Epoch: 12/28/2019
Index Date (FY3D) Time (FY3D) Lat,Lon (FY3D) SZA (FY3D ) Date (NOAA-19) Time (NOAA-19) Lat,Lon (NOAA-19) SZA (NOAA-19 ) Distance(km) Time Diff (sec)
1 01/02/2020 13:40:12 79.71, -60.12 104.45 01/02/2020 13:38:58 79.73, -60.11 104.50 2.31 74
2 01/02/2020 14:30:56 -79.72, 107.15 75.55 01/02/2020 14:29:54 -79.72, 106.98 75.51 3.41 62
3 01/02/2020 15:21:42 79.74, -85.74 104.49 01/02/2020 15:20:59 79.73, -85.70 104.49 1.88 43
4 01/02/2020 16:12:25 -79.71, 81.81 75.56 01/02/2020 16:11:54 -79.73, 81.68 75.52 3.30 31
5 01/02/2020 17:03:11 79.74,-111.08 104.48 01/02/2020 17:02:59 79.74,-110.99 104.48 1.94 12
6 01/02/2020 17:53:55 -79.74, 56.18 75.52 01/02/2020 17:53:55 -79.73, 56.09 75.52 2.51 0
7 01/02/2020 18:44:40 79.73,-136.42 104.47 01/02/2020 18:45:00 79.74,-136.58 104.48 3.17 20
8 01/02/2020 19:35:24 -79.74, 30.84 75.53 01/02/2020 19:35:55 -79.75, 30.80 75.53 1.07 31
9 01/02/2020 20:26:09 79.73,-161.76 104.46 01/02/2020 20:27:00 79.75,-161.87 104.47 3.46 51
10 01/02/2020 21:16:53 -79.74, 5.50 75.54 01/02/2020 21:17:55 -79.76, 5.51 75.54 3.07 62




NCC Satellite Simultaneous Nadir Overpasses (SNOs) Prediction Service
